This is the latest recevied weather packets stored in our database for station/object KF0JHJ. If no packets are shown the sender has not sent any weather packets the latest 10 day(s).
| Time | Temp. | Humidity | Pressure | Rain* | Wind** | Luminosity | Snow |
|---|---|---|---|---|---|---|---|
| 1777814321 | 12.78° C | 60% | 1004.5 hPa | - | - | 62 W/m² | - |
| 1777814018 | 12.78° C | 61% | 1004.4 hPa | - | - | 170 W/m² | - |
| 1777813715 | 12.22° C | 62% | 1004.2 hPa | - | - | 45 W/m² | - |
| 1777813413 | 11.67° C | 62% | 1004.2 hPa | - | - | 34 W/m² | - |
| 1777813110 | 11.67° C | 63% | 1004.1 hPa | - | - | 32 W/m² | - |
| 1777812808 | 11.67° C | 64% | 1004.1 hPa | - | - | 32 W/m² | - |
| 1777812504 | 11.11° C | 64% | 1003.8 hPa | - | - | 31 W/m² | - |
| 1777812202 | 11.11° C | 66% | 1003.7 hPa | - | - | 29 W/m² | - |
| 1777811900 | 10.56° C | 66% | 1003.6 hPa | - | - | 28 W/m² | - |
| 1777811599 | 10.56° C | 67% | 1003.6 hPa | - | - | 27 W/m² | - |
| 1777811293 | 10.56° C | 68% | 1003.6 hPa | - | - | 26 W/m² | - |
| 1777810991 | 10° C | 69% | 1003.5 hPa | - | - | 24 W/m² | - |
| 1777810688 | 10° C | 69% | 1003.4 hPa | - | - | 22 W/m² | - |
| 1777810385 | 9.44° C | 69% | 1003.3 hPa | - | - | 22 W/m² | - |
| 1777810080 | 9.44° C | 70% | 1003.2 hPa | - | - | 21 W/m² | - |
| 1777809778 | 8.89° C | 70% | 1003.2 hPa | - | - | 20 W/m² | - |
| 1777809475 | 8.89° C | 70% | 1003.2 hPa | - | - | 17 W/m² | - |
| 1777809173 | 8.89° C | 70% | 1003.2 hPa | - | - | 16 W/m² | - |
| 1777808871 | 8.33° C | 70% | 1002.8 hPa | - | - | 15 W/m² | - |
| 1777808567 | 8.33° C | 70% | 1002.8 hPa | - | - | 12 W/m² | - |
| 1777808264 | 8.33° C | 69% | 1002.8 hPa | - | - | 11 W/m² | - |
| 1777807963 | 7.78° C | 69% | 1002.7 hPa | - | - | 9 W/m² | - |
| 1777807660 | 7.78° C | 69% | 1002.4 hPa | - | - | 7 W/m² | - |
| 1777807358 | 7.78° C | 69% | 1002.7 hPa | - | - | 5 W/m² | - |
| 1777807053 | 8.33° C | 68% | 1002.4 hPa | - | - | 4 W/m² | - |
* Rain since midnight (hover to see other rain measurements)
** Current wind speed in m/s (hover to see current wind gust speed)